Weather Roundup
Issued by NWS Chicago, IL

Home | Current Version | Previous Version | Text Only | Print | Product List | Glossary On
Versions: 1 2 3 4 5 6 7 8 9 10 11 12 13 14 15 16 17 18 19 20 21 22 23 24 25 26 27 28 29 30 31 32 33 34 35 36 37 38 39 40 41 42 43 44 45 46 47 48 49 50
000
NZUS59 KLOT 251708
HRRLOT

CHICAGO AREA WEATHER ROUNDUP
NATIONAL WEATHER SERVICE CHICAGO/ROMEOVILLE IL
1200 PM CDT SAT MAR 25 2017

NOTE: "FAIR" INDICATES FEW OR NO CLOUDS BELOW 12,000 FEET WITH NO
SIGNIFICANT WEATHER AND/OR OBSTRUCTIONS TO VISIBILITY.

* THESE STATIONS ARE NOT UNDER NWS QUALITY CONTROL. THEY ALSO MAY NOT
  REPORT WEATHER SUCH AS PRECIPITATION OR FOG.

ILZ005-006-012>014-019>023-251800-
NORTHEAST ILLINOIS

CITY           SKY/WX    TMP DP  RH WIND       PRES   REMARKS
OHARE          LGT RAIN  42  39  89 NE16      30.04S
MIDWAY         CLOUDY    44  43  96 N10       30.03F
AURORA         CLOUDY    44  41  89 NE23G30   30.01R
LANSING*       LGT RAIN  44  44 100 N5        30.02F
JOLIET*        CLOUDY    49  47  96 NE9       30.01S
WAUKEGAN       RAIN      38  38 100 NE15      30.08F FOG
DUPAGE AIRPORT CLOUDY    42  42 100 NE16      30.02S
WHEELING       LGT RAIN  39  39 100 NE12      30.07S FOG
KANKAKEE*      CLOUDY    57  56  97 NE8       29.99S
MORRIS*        CLOUDY    49  47  93 NE8       29.98F
LEWIS AIRPORT* CLOUDY    45  45 100 NE9       30.01S FOG
NORTHERLY ISL    N/A     40  39  97 MISG        N/A
$$

WIZ051-052-058>065-066-070>072-251800-
SOUTHEAST WISCONSIN

CITY           SKY/WX    TMP DP  RH WIND       PRES   REMARKS
MILWAUKEE      CLOUDY    39  36  89 NE15      30.12F
KENOSHA*       LGT RAIN  39  37  92 E20G32    30.09S FOG
RACINE*        LGT RAIN  39  36  89 NE16      30.12F
WAUKESHA       LGT RAIN  36  36 100 NE16G28   30.12  FOG
WEST BEND      LGT RAIN  36  36 100 NE15G23   30.14S
$$

INZ001>003-010>013-019-020-251800-
NORTHWEST INDIANA

CITY           SKY/WX    TMP DP  RH WIND       PRES   REMARKS
GARY*          DRIZZLE   45  45 100 N5        30.03F
MICHIGAN CITY* NOT AVBL
RENSSELAER*    NOT AVBL
VALPARAISO     CLOUDY    60  57  89 E12       30.02F FOG
$$

LMZ740>746-251800-
SOUTHERN LAKE MICHIGAN

STATION/POSITION TIME  SKY/WX   TEMP WIND        PRES    VSBY
                                AIR  DIR/SP/G
                 (UTC)          (F)  (DEG/KT/KT) (MB)    (MI)
HARRISON CRIB    1640                360/ 14/ 15   N/A
BURNHAM HARBOR   1700                350/ 11/ 15   N/A
CALUMET HARBOR   1648                340/ 12/ 14 1016.3F
BURNS HARBOR     1640            40  350/  2/  4 1016.9F
MICHIGAN CITY    1640            54   90/ 10/ 12   N/A
$$

ABBREVIATIONS USED IN REMARKS
   TC - TEMPERATURE IN CELSIUS
  WCI - WIND CHILL INDEX
   HX - HEAT INDEX
  VSB - VISIBILITY
$$




USA.gov is the U.S. government's official web portal to all federal, state and local government web resources and services.